| time (UTC) | temp F | wind direction | speed knots | gust knots | rain 1hr in | rain 24hr in | rain mn in | humidity % | barometer mb |
| 20260507070653 | 0 | 270 | 0.0 | 0.9 | 0.00 | 0.00 | 0.00 | 100 | |
| 20260507064758 | 0 | 270 | 0.9 | 0.9 | 0.00 | 0.00 | 0.00 | 100 | |
| 20260507062840 | 0 | 270 | 0.0 | 0.9 | 0.00 | 0.00 | 0.00 | 100 | |
| 20260507060916 | 0 | 270 | 0.0 | 0.9 | 0.00 | 0.00 | 0.00 | 100 | |
| 20260507055023 | 0 | 306 | 0.0 | 0.9 | 0.00 | 0.00 | 0.00 | 100 | |
| 20260507053331 | 0 | 315 | 0.0 | 0.9 | 0.00 | 0.00 | 0.00 | 100 | |
| 20260507051434 | 0 | 311 | 0.0 | 0.9 | 0.00 | 0.00 | 0.00 | 100 | |
| 20260507045816 | 0 | 270 | 0.0 | 0.9 | 0.00 | 0.00 | 0.00 | 100 | |
| 20260507043853 | 0 | 270 | 0.0 | 0.9 | 0.00 | 0.00 | 0.00 | 100 | |
| 20260507042018 | 0 | 270 | 0.0 | 0.9 | 0.00 | 0.00 | 0.00 | 100 | |
| 20260507040146 | 0 | 270 | 0.0 | 1.7 | 0.00 | 0.00 | 0.00 | 100 | |
| 20260507034334 | 0 | 270 | 0.9 | 0.9 | 0.00 | 0.00 | 0.00 | 100 | |
| 20260507032418 | 0 | 270 | 0.9 | 1.7 | 0.00 | 0.00 | 0.00 | 100 | |
| 20260507030713 | 0 | 270 | 0.0 | 0.9 | 0.00 | 0.00 | 0.00 | 100 | |
| 20260507025103 | 0 | 246 | 0.9 | 2.6 | 0.00 | 0.00 | 0.00 | 100 | |
| 20260507023153 | 0 | 253 | 0.9 | 1.7 | 0.00 | 0.00 | 0.00 | 100 | |
| 20260507021432 | 0 | 248 | 0.9 | 1.7 | 0.00 | 0.00 | 0.00 | 100 | |
| 20260507021358 | 0 | 248 | 0.9 | 1.7 | 0.00 | 0.00 | 0.00 | 100 | |
| 20260507015533 | 0 | 248 | 0.9 | 3.5 | 0.00 | 0.00 | 0.00 | 100 | |
| 20260507013928 | 0 | 245 | 0.9 | 2.6 | 0.00 | 0.00 | 0.00 | 100 | |
| 20260507012052 | 0 | 250 | 0.9 | 2.6 | 0.00 | 0.00 | 0.00 | 100 | |
| 20260507010233 | 0 | 245 | 0.9 | 2.6 | 0.00 | 0.00 | 0.00 | 100 | |
| 20260507004533 | 0 | 247 | 0.9 | 2.6 | 0.00 | 0.00 | 0.00 | 100 | |
| 20260507002738 | 0 | 246 | 0.9 | 2.6 | 0.00 | 0.00 | 0.00 | 100 | |
| 20260507001046 | 0 | 249 | 0.9 | 2.6 | 0.00 | 0.00 | 0.00 | 100 | |
| 20260506235334 | 0 | 244 | 0.9 | 2.6 | 0.00 | 0.00 | 0.00 | 100 | |
| 20260506233530 | 0 | 249 | 0.9 | 1.7 | 0.00 | 0.00 | 0.00 | 100 | |
| 20260506231538 | 0 | 246 | 0.9 | 2.6 | 0.00 | 0.00 | 0.00 | 100 | |
| 20260506225808 | 0 | 253 | 0.9 | 1.7 | 0.00 | 0.00 | 0.00 | 100 | |
| 20260506224123 | 0 | 252 | 0.9 | 2.6 | 0.00 | 0.00 | 0.00 | 100 | |
| 20260506222146 | 0 | 270 | 0.0 | 1.7 | 0.00 | 0.00 | 0.00 | 100 | |
| 20260506220228 | 0 | 250 | 0.9 | 1.7 | 0.00 | 0.00 | 0.00 | 100 | |
| 20260506214246 | 0 | 270 | 0.9 | 1.7 | 0.00 | 0.00 | 0.00 | 100 | |
| 20260506212503 | 0 | 252 | 0.9 | 2.6 | 0.00 | 0.00 | 0.00 | 100 | |
| 20260506210627 | 0 | 254 | 0.9 | 1.7 | 0.00 | 0.00 | 0.00 | 100 | |
| 20260506204843 | 0 | 270 | 0.9 | 2.6 | 0.00 | 0.00 | 0.00 | 100 | |
| 20260506202912 | 0 | 252 | 0.9 | 2.6 | 0.00 | 0.00 | 0.00 | 100 | |
| 20260506200918 | 0 | 255 | 0.9 | 2.6 | 0.00 | 0.00 | 0.00 | 100 | |
| 20260506195158 | 0 | 255 | 0.9 | 1.7 | 0.00 | 0.00 | 0.00 | 100 | |
| 20260506193351 | 0 | 270 | 0.9 | 1.7 | 0.00 | 0.00 | 0.00 | 100 | |
| 20260506191643 | 0 | 270 | 0.9 | 1.7 | 0.00 | 0.00 | 0.00 | 100 | |
| 20260506185718 | 0 | 270 | 0.0 | 1.7 | 0.00 | 0.00 | 0.00 | 100 | |
| 20260506183933 | 0 | 270 | 0.0 | 1.7 | 0.00 | 0.00 | 0.00 | 100 | |
| 20260506182218 | 0 | 270 | 0.0 | 1.7 | 0.00 | 0.00 | 0.00 | 100 | |
| 20260506180536 | 0 | 308 | 0.0 | 0.9 | 0.00 | 0.00 | 0.00 | 100 | |
| 20260506174633 | 0 | 253 | 0.9 | 2.6 | 0.00 | 0.00 | 0.00 | 100 | |
| 20260506172806 | 0 | 252 | 0.9 | 1.7 | 0.00 | 0.00 | 0.00 | 100 | |
| 20260506170827 | 0 | 250 | 0.9 | 2.6 | 0.00 | 0.00 | 0.00 | 100 | |
| 20260506164903 | 0 | 270 | 0.0 | 1.7 | 0.00 | 0.00 | 0.00 | 100 | |
| 20260506163228 | 0 | 270 | 0.9 | 1.7 | 0.00 | 0.00 | 0.00 | 100 | |
| 20260506161337 | 0 | 270 | 0.9 | 2.6 | 0.00 | 0.00 | 0.00 | 100 | |
| 20260506155603 | 0 | 250 | 0.9 | 1.7 | 0.00 | 0.00 | 0.00 | 100 | |
| 20260506153826 | 0 | 255 | 0.9 | 3.5 | 0.00 | 0.00 | 0.00 | 100 | |
| 20260506151843 | 0 | 270 | 0.9 | 0.9 | 0.00 | 0.00 | 0.00 | 100 | |
| 20260506150058 | 0 | 270 | 0.0 | 0.9 | 0.00 | 0.00 | 0.00 | 100 | |
| 20260506144428 | 0 | 270 | 0.9 | 1.7 | 0.00 | 0.00 | 0.00 | 100 | |
| 20260506142443 | 0 | 302 | 0.0 | 1.7 | 0.00 | 0.00 | 0.00 | 100 | |
| 20260506140548 | 0 | 255 | 0.9 | 2.6 | 0.00 | 0.00 | 0.00 | 100 | |
| 20260506134747 | 0 | 243 | 0.9 | 2.6 | 0.00 | 0.00 | 0.00 | 100 | |
| 20260506133046 | 0 | 270 | 0.9 | 2.6 | 0.00 | 0.00 | 0.00 | 100 | |
| 20260506131314 | 0 | 270 | 0.9 | 2.6 | 0.00 | 0.00 | 0.00 | 100 | |
| 20260506125708 | 0 | 270 | 0.9 | 2.6 | 0.00 | 0.00 | 0.00 | 100 | |
| 20260506123923 | 0 | 246 | 0.9 | 2.6 | 0.00 | 0.00 | 0.00 | 100 | |
| 20260506122126 | 0 | 248 | 0.9 | 2.6 | 0.00 | 0.00 | 0.00 | 100 | |
| 20260506120527 | 0 | 249 | 0.9 | 2.6 | 0.00 | 0.00 | 0.00 | 100 | |
| 20260506114823 | 0 | 270 | 0.9 | 1.7 | 0.00 | 0.00 | 0.00 | 100 | |
| 20260506113008 | 0 | 253 | 0.9 | 1.7 | 0.00 | 0.00 | 0.00 | 100 | |
| 20260506111404 | 0 | 270 | 0.0 | 1.7 | 0.00 | 0.00 | 0.00 | 100 | |
| 20260506105606 | 0 | 248 | 0.9 | 1.7 | 0.00 | 0.00 | 0.00 | 100 | |
| 20260506103643 | 0 | 253 | 0.9 | 0.9 | 0.00 | 0.00 | 0.00 | 100 | |
| 20260506101823 | 0 | 270 | 0.9 | 0.9 | 0.00 | 0.00 | 0.00 | 100 | |
| 20260506100023 | 0 | 309 | 0.0 | 0.9 | 0.00 | 0.00 | 0.00 | 100 | |
| 20260506094034 | 0 | 315 | 0.0 | 0.9 | 0.00 | 0.00 | 0.00 | 100 | |
| 20260506092206 | 0 | 270 | 0.9 | 0.9 | 0.00 | 0.00 | 0.00 | 100 | |
| 20260506090413 | 0 | 315 | 0.0 | 0.9 | 0.00 | 0.00 | 0.00 | 100 | |
| 20260506084543 | 0 | 270 | 0.0 | 0.9 | 0.00 | 0.00 | 0.00 | 100 | |
| 20260506082823 | 0 | 270 | 0.0 | 0.9 | 0.00 | 0.00 | 0.00 | 100 | |
| 20260506081228 | 0 | 270 | 0.9 | 1.7 | 0.00 | 0.00 | 0.00 | 100 | |
| 20260506073458 | 0 | 270 | 0.0 | 0.9 | 0.00 | 0.00 | 0.00 | 100 |